sat.trackr.live / text

‹ back to catalog

STARLINK-11735 [DTC]

NORAD 64130 · 2025-111H

PAYLOAD ACTIVE UNKNOWN

§ Identity

Operator
Country
US
Launch date
2025-05-24
Launch site
AFETR
Launch vehicle
Mass (kg)
RCS (m²)

Purposes: comms

External: N2YO · Heavens-Above · Gunter

§ Orbital elements

Epoch: 2026-09-20T08:21:22.808160Z

Period
91.67 min
Inclination
43.0004°
Eccentricity
0.0000933
Mean motion
15.70838906 rev/d
Perigee alt
355.9 km
Apogee alt
357.1 km
Semi-major
6,734.6 km
B*
1.2012e-3
RAAN
240.5300°
Arg perigee
280.5045°
Mean anomaly
79.5718°
Rev number
7,710

§ Raw data

STARLINK-11735 [DTC]1 64130U 25111H   26263.34818065  .00156616  00000+0  12012-2 0  99902 64130  43.0004 240.5300 0000933 280.5045  79.5718 15.70838906 77109

JSON: /api/v1/satellites/64130 · /tle

For live sub-satellite position, see the globe view (requires WebGL).

§ Visibility from observer

Set your observer location to see the next 7 days of passes ≥ 10°. The values pass through the URL so the page stays shareable.

No JS? Fill the form by hand. The geolocation button needs JavaScript.